Lid_Strength_Index
4 4 4 4 4 4 4 4 4 4 5 5 6 6 6 6 5 5 5 5 5 5 4 4 4 4 6 9 8 1 -2 -1 -0 2 2 4 5 6 8 7 7 8 7 6 5 5 5
4 4 4 4 4 5 5 4 4 4 4 4 5 5 5 5 6 6 6 6 5 5 4 4 4 4 7 9 3 -0 1 2 3 2 3 3 4 4 6 7 8 6 6 6 6 6 5
5 5 5 5 5 5 5 5 4 4 4 4 4 4 4 4 5 5 5 6 5 5 4 4 3 4 9 9 2 1 2 4 3 3 4 2 2 4 5 7 5 6 7 6 6 6 6
5 5 5 5 5 5 5 5 5 5 5 5 5 5 5 5 5 5 5 6 6 4 4 4 3 4 9 5 2 2 4 5 3 3 1 1 2 4 5 5 6 7 7 10 7 6 6
5 5 5 5 5 5 5 5 5 5 5 5 5 5 5 5 5 5 5 5 5 4 4 3 5 7 8 3 4 4 4 5 5 4 4 2 2 5 5 8 9 8 10 10 9 6 7
5 5 5 5 5 5 5 5 5 5 5 5 5 6 6 6 6 6 6 5 4 3 4 3 4 8 7 6 5 4 4 2 3 5 5 5 5 7 7 8 12 10 10 10 10 7 7
5 5 5 5 5 5 5 6 5 5 5 5 6 6 6 6 6 6 6 5 7 7 7 8 8 8 7 6 3 5 4 4 3 4 7 6 8 9 8 7 7 8 10 11 9 7 8
5 5 5 5 5 6 6 6 5 5 6 6 6 6 6 6 6 6 8 7 8 8 8 7 7 7 7 7 8 6 3 5 5 8 6 8 10 7 6 7 8 8 9 9 8 8 8
5 5 5 5 5 6 6 5 6 6 6 6 6 6 6 6 6 7 8 8 6 7 8 8 8 7 6 6 7 7 4 4 6 7 7 9 8 6 7 9 9 9 9 9 9 9 8
4 5 5 5 5 6 6 6 6 6 6 6 6 6 7 7 8 8 7 6 6 6 10 9 8 7 7 6 7 6 3 5 6 7 7 8 6 8 9 9 9 10 8 9 9 9 12
4 4 5 5 5 6 6 6 6 6 6 6 6 7 7 7 9 8 6 6 7 7 15 9 8 5 7 7 6 7 3 4 7 7 7 8 8 9 9 9 8 9 8 8 9 10 11
4 4 4 5 5 5 5 6 6 6 6 6 7 7 7 7 8 7 6 7 6 10 15 9 8 8 8 7 7 6 6 4 5 6 6 7 6 7 7 7 8 7 8 9 9 10 13
4 4 4 4 4 4 5 5 5 6 6 6 7 7 8 7 8 7 6 6 9 13 9 9 9 8 8 9 8 8 7 7 8 9 9 7 7 6 6 8 9 9 9 11 12 13 12
4 4 4 4 4 4 4 4 4 5 6 6 7 7 7 7 7 7 6 7 12 11 10 8 8 9 9 9 8 8 9 8 7 7 9 10 10 7 6 7 8 9 9 11 14 13 11
4 4 4 4 4 4 4 4 4 5 5 6 7 7 7 6 5 6 6 10 10 10 8 8 8 10 9 9 9 9 8 8 7 7 9 10 10 7 6 5 6 9 10 9 11 11 12
3 3 3 4 4 4 4 4 4 5 5 6 8 6 5 4 5 6 7 10 9 8 7 8 10 10 11 10 9 9 9 7 7 7 5 7 10 7 6 6 7 8 8 11 10 14 14
3 3 3 3 4 4 4 4 5 5 6 6 6 5 5 5 6 6 9 8 8 6 6 8 9 10 10 10 9 10 9 8 8 9 7 7 8 8 7 7 8 8 9 10 9 10 12
4 3 3 3 3 4 4 4 4 5 6 7 7 6 4 6 8 10 9 8 9 7 7 7 8 9 10 9 9 9 9 8 8 8 9 8 9 10 9 6 7 7 8 8 11 11 10
4 4 3 3 3 3 4 4 4 5 6 6 7 5 3 5 10 9 9 9 9 7 6 7 8 8 8 9 10 9 9 6 7 8 8 9 10 11 10 9 8 8 8 8 9 9 11
4 4 3 3 3 3 3 4 4 4 5 5 5 7 5 6 7 7 7 7 8 6 7 7 6 7 8 9 9 9 8 6 6 5 4 7 10 9 10 9 8 9 9 9 8 10 10
4 3 3 3 3 3 3 3 4 4 5 5 6 7 7 8 7 6 6 7 8 8 6 6 7 7 7 8 9 9 8 8 6 7 7 8 9 10 9 9 9 9 8 9 8 8 10
4 3 3 3 3 3 3 3 4 4 6 5 6 7 6 8 8 7 8 8 8 7 8 8 8 7 6 8 7 8 8 7 7 7 7 8 9 9 10 8 9 10 8 8 8 8 8
3 4 3 3 3 3 3 3 3 4 5 6 6 5 6 9 7 7 7 7 8 8 7 6 7 7 7 7 5 5 5 5 7 7 8 8 9 10 11 9 9 11 9 8 8 8 8
4 4 4 3 3 3 3 3 3 4 5 6 6 6 8 10 8 7 8 8 8 8 9 7 6 7 5 5 5 6 7 6 6 6 6 9 10 10 10 11 14 8 7 7 8 8 7
4 5 4 3 3 3 3 3 3 3 5 6 6 6 7 9 9 9 8 8 8 7 9 7 5 4 5 6 7 9 8 8 7 7 7 7 9 11 12 11 10 9 8 9 9 8 7
4 4 4 3 3 3 3 3 3 3 5 6 6 5 6 8 9 8 7 8 8 8 7 7 6 6 4 6 7 11 11 10 10 8 7 7 7 9 12 13 13 8 7 6 7 11 6
4 4 3 3 3 3 3 3 3 3 4 5 6 5 5 7 6 6 7 9 7 7 8 7 7 6 4 8 9 10 10 8 11 10 10 9 9 10 10 11 9 7 6 6 12 9 6
4 4 4 3 3 3 3 3 3 3 4 4 5 5 6 7 7 6 5 7 6 6 8 7 7 6 6 9 10 9 10 9 10 9 10 10 10 11 12 13 12 6 7 10 7 6 6
4 3 3 3 3 3 3 3 3 3 4 4 6 5 5 7 7 5 4 4 4 4 6 6 7 6 5 7 8 8 10 9 10 11 7 11 9 10 10 10 7 6 6 5 5 6 6